sat.trackr.live / text

‹ back to catalog

STARLINK-1329

NORAD 45531 · 2020-025A

PAYLOAD ACTIVE UNKNOWN

§ Identity

Operator
Country
US
Launch date
2020-04-22
Launch site
AFETR
Launch vehicle
Mass (kg)
RCS (m²)

Purposes: comms

External: N2YO · Heavens-Above · Gunter

§ Orbital elements

Epoch: 2026-09-20T06:00:02.000160Z

Period
90.10 min
Inclination
53.0302°
Eccentricity
0.0001034
Mean motion
15.98190070 rev/d
Perigee alt
278.8 km
Apogee alt
280.1 km
Semi-major
6,657.6 km
B*
2.3532e-3
RAAN
191.6523°
Arg perigee
109.5337°
Mean anomaly
15.5748°
Rev number
582

§ Raw data

STARLINK-13291 45531U 20025A   26263.25002315  .01104497  60523-3  23532-2 0  99962 45531  53.0302 191.6523 0001034 109.5337  15.5748 15.98190070  5821

JSON: /api/v1/satellites/45531 · /tle

For live sub-satellite position, see the globe view (requires WebGL).

§ Visibility from observer

Set your observer location to see the next 7 days of passes ≥ 10°. The values pass through the URL so the page stays shareable.

No JS? Fill the form by hand. The geolocation button needs JavaScript.